CW1621 Weather Reports


time (UTC)temp
C
wind
direction
speed
KPH
gust
KPH
rain 1hr
cm
rain 24hr
cm
rain mn
cm
humidity
%
barometer
mb
20260505122603 6 155 4.8 8.0 0.00 0.00 0.00 76 1012.9
20260505122104 7 136 4.8 8.0 0.00 0.00 0.00 75 1012.9
20260505121603 7 121 6.4 8.0 0.00 0.00 0.00 74 1012.8
20260505120603 7 102 4.8 8.0 0.00 0.00 0.00 73 1012.4
20260505115603 8 96 14.5 16.1 0.00 0.00 0.00 70 1012.3
20260505115104 8 93 14.5 19.3 0.00 0.00 0.00 70 1012.3
20260505114603 8 93 14.5 19.3 0.00 0.00 0.00 69 1012.3
20260505114103 8 90 16.1 19.3 0.00 0.00 0.00 69 1012.2
20260505113603 8 89 14.5 19.3 0.00 0.00 0.00 69 1012.1
20260505113104 9 87 14.5 19.3 0.00 0.00 0.00 67 1012.0
20260505112102 9 88 12.9 14.5 0.00 0.00 0.00 68 1012.0
20260505111103 9 86 12.9 16.1 0.00 0.00 0.00 68 1011.8
20260505102103 10 119 8.0 8.0 0.00 0.00 0.00 71 1011.2
20260505101603 10 119 4.8 8.0 0.00 0.00 0.00 71 1011.1
20260505101103 10 122 4.8 4.8 0.00 0.00 0.00 71 1011.1
20260505100603 10 124 4.8 4.8 0.00 0.00 0.00 69 1011.4
20260505095602 11 88 14.5 16.1 0.00 0.00 0.00 66 1011.0
20260505095103 11 83 11.3 19.3 0.00 0.00 0.00 67 1010.9
20260505094603 11 78 14.5 19.3 0.00 0.00 0.00 66 1010.9
20260505094103 11 79 17.7 19.3 0.00 0.00 0.00 67 1010.9
20260505093603 11 80 16.1 19.3 0.00 0.00 0.00 68 1010.9
20260505093103 10 83 16.1 19.3 0.00 0.00 0.00 69 1011.2
20260505092603 10 88 14.5 19.3 0.00 0.00 0.00 70 1011.1
20260505092103 10 84 14.5 19.3 0.00 0.00 0.00 70 1011.1
20260505091602 11 87 11.3 16.1 0.00 0.00 0.00 70 1010.9
20260505091103 11 84 14.5 16.1 0.00 0.00 0.00 68 1010.9
20260505090603 11 84 14.5 16.1 0.00 0.00 0.00 67 1010.8
20260505085603 11 92 9.7 9.7 0.00 0.00 0.00 70 1010.9
20260505085103 11 92 8.0 11.3 0.00 0.00 0.00 71 1010.9
20260505084603 10 92 9.7 11.3 0.00 0.00 0.00 73 1011.1
20260505084104 10 92 4.8 8.0 0.00 0.00 0.00 71 1011.1
20260505083603 11 90 11.3 16.1 0.00 0.00 0.00 69 1011.0
20260505083103 11 90 14.5 16.1 0.00 0.00 0.00 70 1011.0
20260505082603 10 93 11.3 14.5 0.00 0.00 0.00 72 1011.1
20260505082103 10 101 9.7 11.3 0.00 0.00 0.00 73 1011.2
20260505081603 10 101 9.7 11.3 0.00 0.00 0.00 73 1010.9
20260505080603 10 105 8.0 8.0 0.00 0.00 0.00 75 1011.1
20260505080103 11 105 4.8 8.0 0.00 0.00 0.00 74 1010.8
20260505075603 11 105 8.0 8.0 0.00 0.00 0.00 73 1010.8
20260505075103 11 105 8.0 9.7 0.00 0.00 0.00 72 1010.8
20260505074103 11 96 11.3 12.9 0.00 0.00 0.00 70 1010.8
20260505073603 11 96 11.3 12.9 0.00 0.00 0.00 70 1010.8
20260505073103 11 96 12.9 14.5 0.00 0.00 0.00 70 1010.9
20260505072603 12 96 11.3 14.5 0.00 0.00 0.00 69 1010.6
20260505071603 12 92 14.5 16.1 0.00 0.00 0.00 68 1010.6
20260505071104 12 92 12.9 16.1 0.00 0.00 0.00 66 1010.8
20260505070603 13 92 11.3 14.5 0.00 0.00 0.00 66 1010.8
20260505065603 12 101 11.3 14.5 0.00 0.00 0.00 68 1010.9
20260505065104 12 100 11.3 16.1 0.00 0.00 0.00 68 1010.7
20260505064603 12 100 9.7 12.9 0.00 0.00 0.00 70 1010.8
20260505064103 12 101 8.0 9.7 0.00 0.00 0.00 70 1010.7
20260505062603 12 104 9.7 11.3 0.00 0.00 0.00 70 1010.6
20260505061603 12 109 9.7 12.9 0.00 0.00 0.00 73 1010.6
20260505061103 12 106 11.3 14.5 0.00 0.00 0.00 72 1010.6
20260505060603 12 98 9.7 16.1 0.00 0.00 0.00 71 1010.6
20260505060103 13 96 14.5 16.1 0.00 0.00 0.00 69 1010.6
20260505055603 13 90 11.3 16.1 0.00 0.00 0.00 69 1010.5
20260505055103 13 88 12.9 16.1 0.00 0.00 0.00 70 1010.5
20260505054603 13 87 14.5 16.1 0.00 0.00 0.00 70 1010.6
20260505054102 13 89 14.5 19.3 0.00 0.00 0.00 70 1010.5
20260505053604 13 89 16.1 19.3 0.00 0.00 0.00 69 1010.2
20260505052603 13 82 16.1 19.3 0.00 0.00 0.00 67 1010.2
20260505052102 14 81 16.1 19.3 0.00 0.00 0.00 67 1010.2
20260505051603 14 81 16.1 19.3 0.00 0.00 0.00 67 1010.2
20260505051103 14 78 16.1 20.9 0.00 0.00 0.00 68 1010.0
20260505050603 14 81 14.5 19.3 0.00 0.00 0.00 69 1009.7
20260505041603 15 99 11.3 16.1 0.00 0.00 0.00 66 1009.0
20260505041103 15 82 14.5 19.3 0.00 0.00 0.00 64 1008.7
20260505040603 15 75 12.9 16.1 0.00 0.00 0.00 62 1008.5
20260505040103 16 63 11.3 19.3 0.00 0.00 0.00 61 1008.4
20260505035603 16 41 14.5 19.3 0.00 0.00 0.00 60 1008.2
20260505035103 16 29 16.1 20.9 0.00 0.00 0.00 59 1008.1
20260505034602 17 25 11.3 19.3 0.00 0.00 0.00 55 1007.9
20260505033603 17 350 4.8 11.3 0.00 0.00 0.00 51 1007.8
20260505033103 17 344 4.8 8.0 0.00 0.00 0.00 52 1007.6
20260505032603 17 341 3.2 4.8 0.00 0.00 0.00 53 1007.5
20260505032103 17 293 3.2 9.7 0.00 0.00 0.00 54 1007.4
20260505031603 17 288 8.0 9.7 0.00 0.00 0.00 55 1007.4
20260505031104 17 287 4.8 8.0 0.00 0.00 0.00 56 1007.5
20260505030604 17 289 4.8 8.0 0.00 0.00 0.00 55 1007.9
20260505030103 17 322 3.2 4.8 0.00 0.00 0.00 55 1007.9
20260505025603 17 301 3.2 4.8 0.00 0.00 0.00 55 1007.8
20260505025103 17 297 1.6 4.8 0.00 0.00 0.00 56 1007.8
20260505024603 18 289 4.8 4.8 0.00 0.00 0.00 55 1007.5
20260505024103 18 333 3.2 4.8 0.00 0.00 0.00 55 1007.4
20260505023604 18 315 3.2 8.0 0.00 0.00 0.00 54 1007.4
20260505023104 19 285 4.8 8.0 0.00 0.00 0.00 53 1007.2
20260505021603 20 287 6.4 14.5 0.00 0.00 0.00 51 1007.2
20260505021102 20 286 8.0 12.9 0.00 0.00 0.00 52 1008.1
20260505020103 20 298 6.4 14.5 0.00 0.00 0.00 51 1008.2
20260505015103 20 306 9.7 19.3 0.00 0.00 0.00 51 1008.2
20260505014603 20 281 8.0 11.3 0.00 0.00 0.00 52 1008.2
20260505014103 20 301 8.0 14.5 0.00 0.00 0.00 50 1008.2
20260505013603 20 299 9.7 20.9 0.00 0.00 0.00 51 1008.2
20260505013103 20 288 11.3 22.5 0.00 0.00 0.00 50 1008.2
20260505012603 20 302 9.7 20.9 0.00 0.00 0.00 50 1008.2
20260505012103 21 293 16.1 22.5 0.00 0.00 0.00 48 1007.9
20260505011603 21 291 11.3 27.4 0.00 0.00 0.00 49 1008.0
20260505011103 21 293 14.5 24.1 0.00 0.00 0.00 49 1008.1
20260505005603 21 313 8.0 19.3 0.00 0.00 0.00 47 1008.3
20260505004103 21 297 11.3 27.4 0.00 0.00 0.00 50 1008.4
20260505003603 21 289 16.1 22.5 0.00 0.00 0.00 48 1008.4
20260505003103 21 301 11.3 20.9 0.00 0.00 0.00 48 1008.4
20260505002602 21 284 9.7 27.4 0.00 0.00 0.00 52 1008.4
20260505002103 21 284 14.5 27.4 0.00 0.00 0.00 48 1008.4
20260505001603 21 295 9.7 24.1 0.00 0.00 0.00 49 1008.4
20260505001103 21 293 16.1 27.4 0.00 0.00 0.00 49 1008.4
20260505000603 21 296 12.9 20.9 0.00 0.00 0.00 48 1008.6
20260504235603 22 313 8.0 14.5 0.00 0.00 0.00 47 1008.4
20260504235103 21 296 9.7 27.4 0.00 0.00 0.00 48 1008.7
20260504233603 22 291 14.5 22.5 0.00 0.00 0.00 47 1008.3
20260504233103 22 293 11.3 22.5 0.00 0.00 0.00 49 1008.3
20260504232103 22 293 14.5 22.5 0.00 0.00 0.00 49 1008.4
20260504231603 21 321 9.7 22.5 0.00 0.00 0.00 50 1008.7
20260504230604 22 308 8.0 19.3 0.00 0.00 0.00 51 1008.3
20260504225604 21 298 12.9 19.3 0.00 0.00 0.00 51 1008.4
20260504225103 21 293 8.0 22.5 0.00 0.00 0.00 52 1008.4
20260504224603 21 289 14.5 29.0 0.00 0.00 0.00 53 1008.7
20260504224103 21 282 20.9 27.4 0.00 0.00 0.00 51 1008.7
20260504223103 21 289 11.3 20.9 0.00 0.00 0.00 51 1008.5
20260504222603 21 300 11.3 25.7 0.00 0.00 0.00 52 1008.6
20260504222103 21 290 16.1 22.5 0.00 0.00 0.00 52 1008.9
20260504221603 21 294 11.3 20.9 0.00 0.00 0.00 52 1008.9
20260504221103 21 290 14.5 24.1 0.00 0.00 0.00 50 1009.1
20260504220603 20 288 11.3 22.5 0.00 0.00 0.00 51 1009.8
20260504215103 21 298 11.3 27.4 0.00 0.00 0.00 52 1009.7
20260504213103 21 310 8.0 14.5 0.00 0.00 0.00 50 1009.8
20260504212603 21 313 4.8 16.1 0.00 0.00 0.00 49 1009.9
20260504212102 21 296 14.5 20.9 0.00 0.00 0.00 50 1009.8
20260504211603 21 295 11.3 22.5 0.00 0.00 0.00 51 1009.8
20260504211103 21 308 11.3 20.9 0.00 0.00 0.00 51 1010.0
20260504210602 20 285 14.5 25.7 0.00 0.00 0.00 55 1010.4
20260504205603 21 289 16.1 22.5 0.00 0.00 0.00 50 1010.3
20260504205103 21 293 4.8 19.3 0.00 0.00 0.00 50 1010.3
20260504204603 21 291 6.4 16.1 0.00 0.00 0.00 50 1010.4
20260504204104 21 326 8.0 16.1 0.00 0.00 0.00 51 1010.4
20260504203603 21 309 9.7 24.1 0.00 0.00 0.00 53 1010.3
20260504203104 21 310 9.7 16.1 0.00 0.00 0.00 51 1010.4
20260504202603 20 311 8.0 32.2 0.00 0.00 0.00 52 1010.6
20260504201603 21 298 8.0 16.1 0.00 0.00 0.00 50 1010.5
20260504201104 21 296 8.0 14.5 0.00 0.00 0.00 52 1010.3
20260504195603 20 357 8.0 19.3 0.00 0.00 0.00 51 1010.4
20260504195103 20 283 12.9 20.9 0.00 0.00 0.00 52 1010.4
20260504194603 19 279 16.1 25.7 0.00 0.00 0.00 55 1010.7
20260504194104 19 280 17.7 25.7 0.00 0.00 0.00 50 1010.8
20260504193603 19 290 19.3 25.7 0.00 0.00 0.00 50 1010.8
20260504193103 20 285 16.1 25.7 0.00 0.00 0.00 50 1010.6
20260504192103 19 284 14.5 25.7 0.00 0.00 0.00 50 1010.6
20260504191602 19 283 22.5 25.7 0.00 0.00 0.00 51 1010.7
20260504191103 18 288 16.1 25.7 0.00 0.00 0.00 50 1010.9
20260504190603 18 280 19.3 27.4 0.00 0.00 0.00 50 1011.1
20260504185603 18 268 20.9 27.4 0.00 0.00 0.00 49 1011.0
20260504185103 18 277 17.7 25.7 0.00 0.00 0.00 49 1011.1
20260504184603 18 271 17.7 24.1 0.00 0.00 0.00 49 1011.2
20260504184103 19 277 16.1 22.5 0.00 0.00 0.00 48 1011.2
20260504183603 19 286 11.3 22.5 0.00 0.00 0.00 47 1011.2
20260504183103 19 290 9.7 16.1 0.00 0.00 0.00 47 1011.2
20260504182603 19 288 11.3 19.3 0.00 0.00 0.00 47 1011.2
20260504182103 18 292 8.0 19.3 0.00 0.00 0.00 50 1011.3
20260504181103 18 279 19.3 27.4 0.00 0.00 0.00 46 1011.4
20260504180603 18 282 17.7 27.4 0.00 0.00 0.00 47 1011.1
20260504180103 18 260 19.3 22.5 0.00 0.00 0.00 48 1011.1
20260504175604 18 277 16.1 20.9 0.00 0.00 0.00 49 1011.2
20260504175103 18 264 19.3 27.4 0.00 0.00 0.00 46 1011.3
20260504174602 18 269 16.1 22.5 0.00 0.00 0.00 46 1011.0
20260504174103 18 292 8.0 19.3 0.00 0.00 0.00 48 1010.9
20260504173603 18 286 14.5 24.1 0.00 0.00 0.00 47 1011.2
20260504173103 18 285 11.3 22.5 0.00 0.00 0.00 47 1011.0
20260504172603 19 263 4.8 20.9 0.00 0.00 0.00 47 1010.9
20260504172103 20 269 4.8 20.9 0.00 0.00 0.00 49 1010.8
20260504171603 20 275 11.3 16.1 0.00 0.00 0.00 41 1010.8
20260504171103 20 341 4.8 9.7 0.00 0.00 0.00 46 1010.7
20260504170603 20 336 4.8 11.3 0.00 0.00 0.00 46 1010.5
20260504150603 18 185 0.0 0.0 0.00 0.00 0.00 51 1009.3
20260504141103 12 185 0.0 0.0 0.00 0.00 0.00 77 1010.0
20260504140602 12 185 0.0 0.0 0.00 0.00 0.00 76 1009.9
20260504140103 11 185 0.0 3.2 0.00 0.00 0.00 75 1010.1
20260504130603 11 185 0.0 3.2 0.00 0.00 0.00 60 1009.8